Other Public Products
Issued by NWS Charleston, SC

Current Version | Previous Version | Text Only | Print | Product List | Glossary On
Versions: 1 2 3 4 5 6 7 8 9 10 11 12 13 14 15 16 17 18 19 20 21 22 23 24 25 26 27 28 29 30 31 32 33 34 35 36 37 38 39 40 41 42 43 44 45 46 47 48 49 50
000
FPUS82 KCHS 170727
OPUCHS

TEST...KCHS/KSAV Gateway Observations...TEST
National Weather Service Charleston SC
200 AM EST TUE JAN 17 2017

NOTE: "fair" indicates few or no clouds below 12,000 feet with no
significant weather and/or obstructions to visibility.

SCZ050-WAZ558-NCZ071-TXZ119-213-PAZ071-DCZ001-FLZ074-172-MI076-
NYZ176-178-MAZ016-IL014-TNZ027-NJZ106-GAZ044-MD014-170800-
...Gateway Observations for Charleston International...

CITY           SKY/WX    TMP DP  RH WIND       PRES   REMARKS
Chas Airport   CLOUDY    54  52  93 CALM      30.25F
Seattle        CLOUDY    43  32  65 CALM      29.94F
Charlotte      CLOUDY    50  47  89 CALM      30.28S
Dallas DFW     MOCLDY    48  41  76 N6        30.12R
Dallas Love    CLOUDY    51  41  68 N6        30.13R
Philladelphia  CLOUDY    39  28  64 CALM      30.29F
Wash National  CLOUDY    41  39  93 S3        30.26F
Baltimore      LGT RAIN  39  34  82 CALM      30.26S
Miami          PTCLDY    72  62  71 SE5       30.21S
Detroit        RAIN      33  31  92 E8        30.04F FOG     WCI  26
Newark         CLOUDY    40  25  55 SW7       30.27F WCI  35
Laguardia      CLOUDY    42  26  53 SW7       30.26F
J F K          CLOUDY    41  26  55 W9        30.28F
Boston Logan   CLEAR     33  21  61 SW8       30.20S WCI  26
Ft. Lauderdale PTCLDY    73  62  68 SE10      30.20S
Chicago O`Hare TSTM      37  37 100 NE7       29.76F FOG     WCI  32
Chicago Midway TSTM      38  37  97 N6        29.74F VSB 1/2 WCI  33
Houston Bush   CLOUDY    72  69  90 S5        30.01F
Houston Hobby  CLOUDY    72  70  93 S9        30.00F
Nashville      CLOUDY    66  54  65 S15       30.01F
Atlanta        MOCLDY    56  55  97 SE6       30.22F

$$

GAZ044-118-TXZ119-213-NCZ071-DCZ001-MDZ014-506-PAZ021-071-NJZ106-
NYZ176-178-MAZ106-OHZ011-021-055-MIZ076-KYZ091-ILZ014-INZ047-
MNZ060-170800-
...Gateway Observations for Savannah International...

CITY           SKY/WX    TMP DP  RH WIND       PRES   REMARKS
Savannah Arpt  FOG       58  56  93 CALM      30.26F VSB 1/4
Atlanta        MOCLDY    56  55  97 SE6       30.22F
Charlotte      CLOUDY    50  47  89 CALM      30.28S
Dallas DFW     MOCLDY    48  41  76 N6        30.12R
Houston Bush   CLOUDY    72  69  90 S5        30.01F
Wash National  CLOUDY    41  39  93 S3        30.26F
Wash Dulles    CLOUDY    40  37  89 SE5       30.24F WCI  37
Baltimore      LGT RAIN  39  34  82 CALM      30.26S
Philadelphia   CLOUDY    39  28  64 CALM      30.29F
Newark         CLOUDY    40  25  55 SW7       30.27F WCI  35
Laguardia      CLOUDY    42  26  53 SW7       30.26F
J F K          CLOUDY    41  26  55 W9        30.28F
Boston         CLEAR     33  21  61 SW8       30.20S WCI  26
Pittsburg      CLOUDY    38  37  97 SE3       30.09F
Akron          LGT RAIN  41  37  86 SE7       30.06F FOG
Cleveland      LGT RAIN  42  38  85 SE9       30.06F FOG
Cincinnati     CLOUDY    56  54  93 S16G23    29.96F
Columbus       LGT RAIN  47  47 100 SE3       30.03F
Detroit        RAIN      33  31  92 E8        30.04F FOG     WCI  26
Chicago O`Hare TSTM      37  37 100 NE7       29.76F FOG     WCI  32
Minneapolis    FRZ RAIN  30  27  88 N5        29.95S FOG     WCI  25
Indianapolis   CLOUDY    55  53  93 S12       29.89F

$$




USA.gov is the U.S. government's official web portal to all federal, state and local government web resources and services.